This is the latest recevied weather packets stored in our database for station/object 2E0RGX-13. If no packets are shown the sender has not sent any weather packets the latest 10 day(s).
| Time | Temp. | Humidity | Pressure | Rain* | Wind** | Luminosity | Snow |
|---|---|---|---|---|---|---|---|
| 1777615405 | 12.78° C | 57% | 1017.3 hPa | 0 mm | - | 1 W/m² | - |
| 1777615101 | 12.22° C | 59% | 1017.7 hPa | 0 mm | - | 1 W/m² | - |
| 1777614797 | 12.22° C | 59% | 1017.5 hPa | 0 mm | - | 1 W/m² | - |
| 1777614494 | 12.22° C | 59% | 1017.7 hPa | 0 mm | - | 1 W/m² | - |
| 1777614190 | 11.67° C | 60% | 1017.5 hPa | 0 mm | - | 0 W/m² | - |
| 1777613886 | 11.67° C | 59% | 1017.6 hPa | 0 mm | - | 0 W/m² | - |
| 1777613582 | 11.67° C | 60% | 1017.4 hPa | 0 mm | - | 0 W/m² | - |
| 1777613277 | 11.67° C | 60% | 1017.3 hPa | 0 mm | - | 0 W/m² | - |
| 1777612973 | 11.67° C | 59% | 1017.7 hPa | 0 mm | - | 0 W/m² | - |
| 1777612669 | 11.11° C | 60% | 1017.5 hPa | 0 mm | - | 0 W/m² | - |
| 1777612365 | 11.11° C | 60% | 1017.5 hPa | 0 mm | - | 0 W/m² | - |
| 1777612061 | 11.11° C | 60% | 1017.4 hPa | 0 mm | - | 0 W/m² | - |
| 1777611757 | 10.56° C | 61% | 1017.5 hPa | 0 mm | - | 0 W/m² | - |
| 1777611453 | 10.56° C | 62% | 1017.5 hPa | 0 mm | - | 0 W/m² | - |
| 1777611149 | 10.56° C | 63% | 1017.3 hPa | 0 mm | - | 0 W/m² | - |
| 1777610846 | 10.56° C | 63% | 1017.4 hPa | 0 mm | - | 0 W/m² | - |
| 1777610542 | 10.56° C | 63% | 1017.5 hPa | 0 mm | - | 0 W/m² | - |
| 1777610238 | 10.56° C | 63% | 1017.3 hPa | 0 mm | - | 0 W/m² | - |
| 1777609934 | 10.56° C | 63% | 1017.5 hPa | 0 mm | - | 0 W/m² | - |
| 1777609630 | 10.56° C | 64% | 1017.1 hPa | 0 mm | - | 0 W/m² | - |
| 1777609326 | 10.56° C | 65% | 1017.5 hPa | 0 mm | - | 0 W/m² | - |
| 1777609022 | 10.56° C | 65% | 1017.3 hPa | 0 mm | - | 0 W/m² | - |
| 1777608718 | 10.56° C | 65% | 1017.2 hPa | 0 mm | - | 0 W/m² | - |
| 1777608414 | 10° C | 66% | 1017.4 hPa | 0 mm | - | 0 W/m² | - |
| 1777608110 | 10.56° C | 66% | 1017.3 hPa | 0 mm | - | 0 W/m² | - |
* Rain latest hour (hover to see other rain measurements)
** Current wind speed in m/s (hover to see current wind gust speed)